Content
SEND FEEDBACK

Daily
Averages
Monthly
Summary
United States of America

DEERFIELD, SOUTH DAKOTA


Home > North America > United States > South Dakota
Elevation: 1847 meters     Latitude: 44 00N     Longitude: 103 47W

WEATHER
 
SELECT A DAY
Number of Records: 125,156;   Date Range: 1/1/95 - 9/30/14
 
SHARE

PRINT THIS DATA

[ ← Previous Day ]
WEATHER ALMANAC - 13 FEBRUARY, 2013
[ Next Day → ]
[ °F ]   °C
Weather ElementAverageHighLow
Temperature-1.6 °C3.3 °C (11:53 am)-6.1 °C (11:53 pm)
Dewpoint-6.7 °C-2.8 °C (2:53 pm)-12.8 °C (11:53 pm)
Humidity69.7 %86 % (3:02 pm)45 % (11:53 am)
Barometer1010.8 hPa1015.6 hPa (11:53 pm)1007.1 hPa (2:23 pm)
Wind Speed19 km/h40.7 km/h (11:53 am)
Wind Gust70.3 km/h (12:53 pm)
Weather ElementAverage
Visibility10.8 km
Wind DirectionWSW (259.2 °)

Weather ElementTotal
Precipitation4.06 mm
Heating Degree Days19.8 (Base 18.3)
Averaged from 38 records on 13 February, 2013
WEATHER CONDITIONS BREAKOUT
WIND DIRECTION BREAKOUT
WEATHER BY HOUR - 13 FEBRUARY, 2013
[ °F ]   °C
Local TimeTemperatureDewpointHumidityBarometerVisibilityWind DirectionWind SpeedGust SpeedPrecipitationEventsConditions
1:53 AM-5 °C-9.4 °C72 %1012.2 hPa16.1 kmWSW (240°)7.4 km/hClear
2:53 AM-5 °C-8.9 °C74 %1011.5 hPa16.1 kmWest (280°)11.1 km/hPartly Cloudy
3:53 AM-3.3 °C-9.4 °C63 %1011.2 hPa16.1 kmWest (280°)16.7 km/h31.5 km/hClear
4:53 AM-3.3 °C-10 °C60 %1010.8 hPa16.1 kmWest (270°)29.6 km/h53.8 km/hClear
5:53 AM-4.4 °C-10.6 °C62 %1010.8 hPa16.1 kmWest (270°)20.4 km/hClear
6:53 AM-4.4 °C-10 °C65 %1011.5 hPa16.1 kmWest (270°)22.2 km/h29.6 km/hMostly Cloudy
7:53 AM-1.1 °C-8.9 °C56 %1010.8 hPa16.1 kmWest (270°)18.5 km/hOvercast
8:53 AM0.6 °C-7.8 °C54 %1010.5 hPa16.1 kmWNW (290°)20.4 km/h31.5 km/hOvercast
9:53 AM1.1 °C-7.8 °C52 %1010.5 hPa16.1 kmNW (310°)18.5 km/h35.2 km/hMostly Cloudy
10:53 AM2.2 °C-7.8 °C48 %1009.8 hPa16.1 kmWNW (300°)27.8 km/h48.1 km/hMostly Cloudy
11:53 AM3.3 °C-7.8 °C45 %1009.1 hPa16.1 kmWest (280°)40.7 km/h57.5 km/hScattered Clouds
12:53 PM3.3 °C-6.7 °C48 %1009.1 hPa16.1 kmWNW (290°)29.6 km/h70.3 km/hMostly Cloudy
1:50 PM1 °C-4 °C70 %1007.5 hPa2.4 kmWNW (290°)33.3 km/h66.6 km/h0 mmSnowLight Snow
1:53 PM-0.6 °C-3.9 °C79 %1010.5 hPa1.6 kmWNW (290°)22.2 km/h55.5 km/h0 mmSnowLight Snow
2:23 PM1 °C-3 °C75 %1007.1 hPa4.8 kmWest (270°)27.8 km/h51.8 km/h0 mmSnowLight Snow
2:48 PM1 °C-4 °C70 %1007.5 hPa1.9 kmWNW (300°)31.5 km/h55.5 km/h0 mmSnowLight Snow
2:53 PM-0.6 °C-2.8 °C85 %1010.5 hPa0.3 kmWNW (290°)20.4 km/h55.5 km/h0 mmFog-SnowHeavy Snow
3:02 PM-1 °C-3 °C86 %1007.8 hPa0.8 kmWNW (300°)24.1 km/h40.7 km/h0 mmFog-SnowLight Snow
3:06 PM-1 °C-3 °C86 %1007.8 hPa3.2 kmWNW (300°)22.2 km/h40.7 km/h0.25 mmSnowLight Snow
3:10 PM-1 °C-3 °C86 %1007.8 hPa8 kmWNW (300°)20.4 km/h37 km/h0.25 mmSnowLight Snow
3:27 PM1 °C-4 °C70 %1007.8 hPa16.1 kmWNW (300°)27.8 km/h48.1 km/h0.25 mmScattered Clouds
3:49 PM0 °C-5 °C69 %1008.5 hPa9.7 kmNW (320°)20.4 km/h35.2 km/h0.25 mmSnowLight Snow
3:53 PM0 °C-5 °C69 %1011.2 hPa9.7 kmNW (320°)24.1 km/h44.4 km/h0.25 mmSnowLight Snow
4:10 PM-1 °C-6 °C69 %1008.5 hPa16.1 kmNW (320°)20.4 km/h37 km/h0 mmOvercast
4:53 PM-1.1 °C-5.6 °C72 %1011.9 hPa16.1 kmWNW (290°)18.5 km/h33.3 km/h0 mmOvercast
5:53 PM-1.7 °C-6.7 °C69 %1012.5 hPa16.1 kmWNW (290°)25.9 km/h40.7 km/hMostly Cloudy
6:53 PM-2.2 °C-6.7 °C72 %1013.9 hPa16.1 kmWNW (290°)18.5 km/hScattered Clouds
7:53 PM-2.8 °C-7.2 °C72 %1013.9 hPa16.1 kmWest (280°)16.7 km/hMostly Cloudy
8:50 PM-3 °C-6 °C80 %1011.5 hPa3.2 kmWest (270°)13 km/h0 mmSnowLight Snow
8:53 PM-3.3 °C-5.6 °C84 %1014.2 hPa1.9 kmWNW (300°)9.3 km/h0 mmSnowLight Snow
9:01 PM-3 °C-5 °C86 %1011.9 hPa0.8 kmVariable5.6 km/h0.25 mmFog-SnowSnow
9:11 PM-3 °C-5 °C86 %1011.9 hPa1.3 kmWest (270°)11.1 km/h0.51 mmSnowLight Snow
9:16 PM-3 °C-6 °C80 %1011.5 hPa1.6 kmCalm0.51 mmSnowLight Snow
9:21 PM-4 °C-6 °C86 %1011.9 hPa4.8 kmWest (280°)7.4 km/h0.51 mmSnowLight Snow
9:27 PM-3 °C-7 °C74 %1011.5 hPa14.5 kmVariable11.1 km/h25.9 km/h0.51 mmMostly Cloudy
9:53 PM-3.9 °C-11.1 °C58 %1014.2 hPa16.1 kmVariable7.4 km/h0.51 mmPartly Cloudy
10:53 PM-5 °C-12.2 °C58 %1014.6 hPa16.1 kmNW (320°)9.3 km/hClear
11:53 PM-6.1 °C-12.8 °C60 %1015.6 hPa16.1 kmNW (310°)7.4 km/hClear
Hourly data recorded from KCUT, located 0 kilometers away from Deerfield, South Dakota







STORIES FROM OUR PARTNERS